EW7067 Weather Reports


Display with metric or nautical units.
time (UTC)temp
F
wind
direction
speed
MPH
gust
MPH
rain 1hr
in
rain 24hr
in
rain mn
in
humidity
%
barometer
mb
20260509002129 62 237 0.0 4.0 0.00 0.00 0.00 68 969.5
20260509001623 63 237 0.0 4.0 0.00 0.00 0.00 66 969.5
20260509000611 64 171 0.0 1.0 0.00 0.00 0.00 65 969.5
20260509000105 64 171 0.0 1.0 0.00 0.00 0.00 65 969.4
20260508235559 64 171 0.0 2.0 0.00 0.00 0.00 64 969.3
20260508235053 65 171 0.0 2.0 0.00 0.00 0.00 62 969.3
20260508234546 65 171 0.0 1.0 0.00 0.00 0.00 63 969.3
20260508234040 65 171 0.0 4.0 0.00 0.00 0.00 61 969.3
20260508233535 65 171 1.0 4.0 0.00 0.00 0.00 60 969.2
20260508233028 65 169 1.0 5.0 0.00 0.00 0.00 59 969.3
20260508232522 66 165 2.0 7.0 0.00 0.00 0.00 57 969.3
20260508232017 66 165 2.0 7.0 0.00 0.00 0.00 57 969.2
20260508231511 66 202 2.0 10.0 0.00 0.01 0.00 58 969.2
20260508231005 66 219 2.0 10.0 0.00 0.01 0.00 57 969.4
20260508230458 66 191 2.0 8.0 0.00 0.01 0.00 57 969.3
20260508225952 67 171 2.0 8.0 0.00 0.01 0.00 56 969.4
20260508225446 67 164 3.0 10.0 0.00 0.01 0.00 54 969.4
20260508224941 67 218 3.0 9.0 0.00 0.01 0.00 54 969.2
20260508224435 68 164 2.0 9.0 0.00 0.01 0.00 54 969.3
20260508223929 68 246 1.0 6.0 0.00 0.01 0.00 54 969.3
20260508223423 68 248 1.0 7.0 0.00 0.01 0.00 54 969.3
20260508222917 68 261 1.0 8.0 0.00 0.01 0.00 54 969.2
20260508222411 69 211 2.0 8.0 0.00 0.01 0.00 54 969.2
20260508221905 69 185 3.0 12.0 0.00 0.01 0.00 52 969.2
20260508221400 68 221 4.0 12.0 0.00 0.01 0.00 53 969.2
20260508220853 68 152 3.0 10.0 0.00 0.01 0.00 54 969.3
20260508220347 68 205 3.0 8.0 0.00 0.01 0.00 54 969.3
20260508214834 69 221 3.0 12.0 0.00 0.01 0.00 52 969.0
20260508214335 68 142 2.0 7.0 0.00 0.01 0.00 54 969.0
20260508213335 69 267 3.0 9.0 0.00 0.01 0.00 50 968.9
20260508212834 69 77 2.0 8.0 0.00 0.01 0.00 52 969.0
20260508212335 69 182 2.0 6.0 0.00 0.01 0.00 49 969.1
20260508211835 69 221 2.0 9.0 0.00 0.01 0.00 49 969.1
20260508210835 69 167 2.0 11.0 0.00 0.01 0.00 49 969.3
20260508205835 69 222 3.0 11.0 0.00 0.01 0.00 47 969.3
20260508205332 69 165 2.0 10.0 0.00 0.01 0.00 47 969.3
20260508204833 70 163 1.0 7.0 0.00 0.01 0.00 46 969.4
20260508204333 69 215 1.0 7.0 0.00 0.01 0.00 49 969.4
20260508203832 69 323 2.0 12.0 0.00 0.01 0.00 47 969.5
20260508203330 69 206 3.0 12.0 0.00 0.01 0.00 47 969.6
20260508202329 69 198 1.0 8.0 0.00 0.01 0.00 45 969.7
20260508201829 69 350 1.0 6.0 0.00 0.01 0.00 46 969.8
20260508201327 69 194 3.0 11.0 0.00 0.01 0.00 47 969.8
20260508200827 68 136 4.0 11.0 0.00 0.01 0.00 47 970.0
20260508200327 69 240 3.0 11.0 0.00 0.01 0.00 46 970.2
20260508195327 69 154 4.0 8.0 0.00 0.01 0.00 43 970.3
20260508194827 69 193 3.0 9.0 0.00 0.01 0.00 45 970.2
20260508194326 69 100 2.0 9.0 0.00 0.01 0.00 47 970.2
20260508193830 69 323 2.0 6.0 0.00 0.01 0.00 45 970.3
20260508193327 69 234 3.0 10.0 0.00 0.01 0.00 43 970.5
20260508192826 69 289 2.0 10.0 0.00 0.01 0.00 45 970.6
20260508192325 69 166 1.0 8.0 0.00 0.01 0.00 44 970.5
20260508190826 69 314 2.0 6.0 0.00 0.01 0.00 43 970.8
20260508190325 69 259 2.0 8.0 0.00 0.01 0.00 44 970.8
20260508185324 69 332 1.0 9.0 0.00 0.01 0.00 44 971.0
20260508184325 68 102 2.0 9.0 0.00 0.02 0.00 44 971.0
20260508183825 68 216 2.0 9.0 0.00 0.03 0.00 43 971.1
20260508183320 68 263 3.0 10.0 0.00 0.03 0.00 43 971.2
20260508182820 67 175 3.0 10.0 0.00 0.03 0.00 40 971.4
20260508182322 67 140 2.0 9.0 0.00 0.03 0.00 41 971.4
20260508181821 67 164 1.0 9.0 0.00 0.03 0.00 43 971.4
20260508181320 67 156 1.0 9.0 0.00 0.03 0.00 41 971.3
20260508180821 67 259 4.0 11.0 0.00 0.03 0.00 40 971.5
20260508180321 67 162 5.0 11.0 0.00 0.03 0.00 41 971.6
20260508175821 67 165 3.0 9.0 0.00 0.03 0.00 41 971.6
20260508175321 67 240 2.0 9.0 0.00 0.03 0.00 43 971.6
20260508174821 67 168 3.0 10.0 0.00 0.03 0.00 45 971.7
20260508174320 67 36 3.0 10.0 0.00 0.03 0.00 45 971.7
20260508173821 67 260 3.0 8.0 0.00 0.03 0.00 44 971.9
20260508173320 67 355 2.0 8.0 0.00 0.03 0.00 41 971.9
20260508171820 66 227 2.0 7.0 0.00 0.03 0.00 42 972.2
20260508171321 66 134 2.0 7.0 0.00 0.03 0.00 43 972.2
20260508170821 66 339 2.0 8.0 0.00 0.03 0.00 45 972.2
20260508170319 66 192 3.0 10.0 0.00 0.03 0.00 43 972.3
20260508165817 65 120 2.0 10.0 0.00 0.03 0.00 45 972.4
20260508165314 65 233 1.0 8.0 0.00 0.03 0.00 47 972.4
20260508164813 65 136 2.0 9.0 0.00 0.03 0.00 44 972.5
20260508163810 65 263 1.0 6.0 0.00 0.03 0.00 50 972.5
20260508163308 65 179 2.0 7.0 0.00 0.03 0.00 51 972.5
20260508162808 65 62 1.0 7.0 0.00 0.03 0.00 51 972.5
20260508162310 65 178 1.0 5.0 0.00 0.03 0.00 47 972.7
20260508161809 65 58 1.0 4.0 0.00 0.03 0.00 53 972.8
20260508160804 64 244 2.0 7.0 0.00 0.03 0.00 53 973.1
20260508155802 64 5 1.0 5.0 0.00 0.03 0.00 49 973.2
20260508155301 63 317 1.0 5.0 0.00 0.03 0.00 45 973.3
20260508154759 63 17 2.0 8.0 0.00 0.03 0.00 47 973.3
20260508154256 63 254 3.0 11.0 0.00 0.03 0.00 47 973.4
20260508153755 63 338 3.0 11.0 0.00 0.03 0.00 46 973.3
20260508153249 64 309 2.0 5.0 0.00 0.03 0.00 48 973.4
20260508152744 64 22 1.0 4.0 0.00 0.03 0.00 48 973.4
20260508152237 64 328 1.0 4.0 0.00 0.03 0.00 50 973.4
20260508151731 63 323 1.0 7.0 0.00 0.03 0.00 51 973.5
20260508151225 63 280 1.0 7.0 0.00 0.03 0.00 50 973.5
20260508150720 63 346 0.0 4.0 0.00 0.03 0.00 49 973.6
20260508150213 62 254 1.0 4.0 0.00 0.03 0.00 50 973.6
20260508145202 62 306 2.0 7.0 0.00 0.03 0.00 50 973.6
20260508144656 62 258 1.0 7.0 0.00 0.03 0.00 52 973.6
20260508144150 61 257 1.0 8.0 0.00 0.03 0.00 53 973.6
20260508143644 61 296 2.0 8.0 0.00 0.03 0.00 54 973.6
20260508143138 61 312 2.0 5.0 0.00 0.03 0.00 57 973.6
20260508142632 61 58 1.0 4.0 0.00 0.03 0.00 57 973.6
20260508142126 61 355 1.0 5.0 0.00 0.03 0.00 58 973.6
20260508141620 60 342 1.0 5.0 0.00 0.03 0.00 58 973.6
20260508141114 61 342 0.0 4.0 0.00 0.03 0.00 59 973.5
20260508140608 60 342 0.0 3.0 0.00 0.03 0.00 60 973.5
20260508135556 59 342 0.0 2.0 0.00 0.03 0.00 65 973.5
20260508135049 59 342 0.0 2.0 0.00 0.03 0.00 69 973.5
20260508134544 59 342 0.0 0.0 0.00 0.03 0.00 70 973.6
20260508134038 58 342 0.0 3.0 0.00 0.03 0.00 72 973.5
20260508133531 57 342 1.0 4.0 0.00 0.03 0.00 74 973.4
20260508133027 57 342 1.0 4.0 0.00 0.03 0.00 77 973.3
20260508132520 56 342 1.0 4.0 0.00 0.03 0.00 80 973.3
20260508132014 55 342 0.0 3.0 0.00 0.03 0.00 85 973.3
20260508131508 54 42 0.0 2.0 0.00 0.03 0.00 89 973.3
20260508131002 53 42 0.0 0.0 0.00 0.03 0.00 93 973.3
20260508130456 53 42 0.0 0.0 0.00 0.03 0.00 92 973.3
20260508125950 52 42 0.0 0.0 0.00 0.03 0.00 91 973.3
20260508125444 51 42 0.0 0.0 0.00 0.03 0.00 90 973.3
20260508124938 50 42 0.0 0.0 0.00 0.03 0.00 89 973.3
20260508123420 48 42 0.0 0.0 0.00 0.04 0.00 89 973.3
20260508122914 47 42 0.0 0.0 0.00 0.04 0.00 90 973.2
20260508122408 47 42 0.0 0.0 0.00 0.04 0.00 90 973.1
20260508121902 46 42 0.0 0.0 0.00 0.05 0.00 90 973.1
20260508121356 45 42 0.0 0.0 0.00 0.06 0.00 90 973.1
20260508120850 44 42 0.0 0.0 0.00 0.06 0.00 90 972.9
20260508120344 44 42 0.0 0.0 0.00 0.07 0.00 90 972.9
20260508115838 43 42 0.0 0.0 0.00 0.09 0.00 90 972.9
20260508115331 43 42 0.0 0.0 0.00 0.10 0.00 90 972.8
20260508114825 43 42 0.0 0.0 0.00 0.11 0.00 91 972.7
20260508114319 43 42 0.0 0.0 0.00 0.12 0.00 91 972.6
20260508113308 42 42 0.0 0.0 0.00 0.13 0.00 91 972.5
20260508112801 42 42 0.0 0.0 0.00 0.14 0.00 91 972.4
20260508112255 41 42 0.0 0.0 0.00 0.14 0.00 91 972.3
20260508111749 40 42 0.0 0.0 0.00 0.16 0.00 91 972.3
20260508111245 40 42 0.0 0.0 0.00 0.16 0.00 91 972.3
20260508110738 40 42 0.0 0.0 0.00 0.17 0.00 91 972.2
20260508110232 40 42 0.0 0.0 0.00 0.17 0.00 91 972.2
20260508105726 40 42 0.0 0.0 0.00 0.17 0.00 91 972.1
20260508104714 40 42 0.0 0.0 0.00 0.17 0.00 91 972.0
20260508104208 40 42 0.0 0.0 0.00 0.17 0.00 91 971.7
20260508103702 40 42 0.0 0.0 0.00 0.17 0.00 91 971.6
20260508103156 40 42 0.0 0.0 0.00 0.17 0.00 92 971.5
20260508102650 40 42 0.0 0.0 0.00 0.17 0.00 91 971.5
20260508102144 40 42 0.0 0.0 0.00 0.17 0.00 91 971.5
20260508101638 40 42 0.0 0.0 0.00 0.17 0.00 91 971.4
20260508101132 40 42 0.0 0.0 0.00 0.17 0.00 91 971.4
20260508100626 40 42 0.0 0.0 0.00 0.17 0.00 91 971.3
20260508100122 40 42 0.0 0.0 0.00 0.17 0.00 91 971.3
20260508095622 40 42 0.0 0.0 0.00 0.17 0.00 91 971.2
20260508095119 40 42 0.0 0.0 0.00 0.17 0.00 92 971.2
20260508094118 40 42 0.0 0.0 0.00 0.17 0.00 92 971.1
20260508093617 40 42 0.0 0.0 0.00 0.17 0.00 92 971.1
20260508093117 40 42 0.0 0.0 0.00 0.17 0.00 92 971.1
20260508092615 41 42 0.0 0.0 0.00 0.17 0.00 92 971.0
20260508092114 41 42 0.0 0.0 0.00 0.17 0.00 92 971.0
20260508091614 41 42 0.0 0.0 0.00 0.17 0.00 92 971.0
20260508091112 41 42 0.0 0.0 0.00 0.17 0.00 92 971.0
20260508090611 41 42 0.0 0.0 0.00 0.17 0.00 92 970.9
20260508090112 42 42 0.0 0.0 0.00 0.17 0.00 92 970.8
20260508085610 42 42 0.0 0.0 0.00 0.17 0.00 92 970.8
20260508085107 42 42 0.0 1.0 0.00 0.17 0.00 92 970.7
20260508084608 42 42 0.0 1.0 0.00 0.17 0.00 92 970.7
20260508084110 42 42 0.0 0.0 0.00 0.17 0.00 92 970.8
20260508083603 42 42 0.0 0.0 0.00 0.17 0.00 92 970.8
20260508083104 42 42 0.0 0.0 0.00 0.17 0.00 92 970.8
20260508082603 42 42 0.0 0.0 0.00 0.17 0.00 92 970.7
20260508082103 42 42 0.0 0.0 0.00 0.17 0.00 92 970.6
20260508081602 42 42 0.0 0.0 0.00 0.17 0.00 92 970.6
20260508081102 42 42 0.0 0.0 0.00 0.17 0.00 92 970.6
20260508080602 42 42 0.0 0.0 0.00 0.17 0.00 92 970.5
20260508080101 42 42 0.0 0.0 0.00 0.17 0.00 92 970.5
20260508075602 42 42 0.0 0.0 0.00 0.17 0.00 92 970.5
20260508075101 42 42 0.0 0.0 0.00 0.17 0.00 92 970.4
20260508074056 42 42 0.0 0.0 0.00 0.17 0.00 92 970.4
20260508073553 43 42 0.0 0.0 0.00 0.17 0.00 92 970.4
20260508073055 43 42 0.0 0.0 0.00 0.17 0.00 92 970.4
20260508072054 43 42 0.0 0.0 0.00 0.17 0.00 92 970.3
20260508071553 43 42 0.0 0.0 0.00 0.17 0.00 92 970.3
20260508071054 43 42 0.0 0.0 0.00 0.17 0.00 92 970.4
20260508070553 43 42 0.0 0.0 0.00 0.17 0.00 92 970.3
20260508070054 43 42 0.0 0.0 0.00 0.17 0.00 92 970.2
20260508065554 43 42 0.0 0.0 0.00 0.18 0.00 92 970.3
20260508064553 43 42 0.0 0.0 0.00 0.18 0.00 92 970.1
20260508064053 43 42 0.0 0.0 0.00 0.19 0.00 92 970.1
20260508063554 43 42 1.0 3.0 0.00 0.20 0.00 92 970.1
20260508063054 44 42 0.0 3.0 0.00 0.20 0.00 93 970.1
20260508062553 44 44 0.0 0.0 0.00 0.20 0.00 92 970.0
20260508062054 44 44 0.0 0.0 0.00 0.20 0.00 92 970.0
20260508060053 44 44 0.0 0.0 0.00 0.20 0.00 93 970.2
20260508055554 44 44 0.0 0.0 0.00 0.20 0.00 93 970.0
20260508055053 44 44 0.0 0.0 0.00 0.20 0.00 93 970.0
20260508054052 44 44 0.0 0.0 0.00 0.20 0.00 93 970.0
20260508053551 44 44 0.0 0.0 0.00 0.20 0.00 93 970.0
20260508053048 44 44 0.0 0.0 0.00 0.20 0.00 93 969.9
20260508052546 45 44 0.0 0.0 0.00 0.21 0.00 93 969.9
20260508052045 45 44 0.0 0.0 0.00 0.22 0.00 93 969.8
20260508051546 45 44 0.0 0.0 0.00 0.23 0.00 93 969.9
20260508051046 45 44 0.0 0.0 0.00 0.23 0.00 93 969.8
20260508050546 45 44 0.0 0.0 0.00 0.23 0.00 93 969.7
20260508050043 45 44 0.0 0.0 0.00 0.23 0.00 93 969.7
20260508045543 45 44 0.0 0.0 0.00 0.23 0.00 93 969.7
20260508045044 45 44 0.0 0.0 0.00 0.23 0.00 93 969.6
20260508044539 45 44 0.0 0.0 0.00 0.23 0.00 93 969.6
20260508044040 46 44 0.0 0.0 0.00 0.24 0.00 93 969.6
20260508043537 46 44 0.0 0.0 0.00 0.24 0.00 93 969.6
20260508043035 46 44 0.0 0.0 0.00 0.26 0.00 93 969.7
20260508042533 46 44 0.0 0.0 0.00 0.26 0.00 93 969.7
20260508042031 46 44 0.0 0.0 0.00 0.27 0.00 93 969.6
20260508041529 46 44 0.0 0.0 0.00 0.27 0.00 93 969.5
20260508041027 46 44 0.0 0.0 0.00 0.27 0.00 93 969.5
20260508040526 46 44 0.0 0.0 0.00 0.27 0.00 93 969.5
20260508035520 47 44 0.0 0.0 0.00 0.27 0.27 93 969.5
20260508034521 47 44 0.0 0.0 0.00 0.27 0.27 94 969.5
20260508034020 47 44 0.0 0.0 0.00 0.27 0.27 94 969.4
20260508033519 47 44 0.0 0.0 0.00 0.27 0.27 94 969.4
20260508033020 47 44 0.0 0.0 0.00 0.27 0.27 93 969.4
20260508032019 47 44 0.0 3.0 0.00 0.27 0.27 93 969.4
20260508031520 48 44 0.0 2.0 0.00 0.27 0.27 93 969.4
20260508031020 48 44 0.0 3.0 0.00 0.27 0.27 93 969.3
20260508030018 48 0 0.0 0.0 0.00 0.27 0.27 92 969.3
20260508025516 49 0 0.0 0.0 0.00 0.27 0.27 92 969.1
20260508025013 49 0 0.0 0.0 0.00 0.28 0.27 91 969.1
20260508024512 49 0 0.0 2.0 0.00 0.28 0.27 91 969.1
20260508024010 49 0 1.0 2.0 0.00 0.29 0.27 91 968.9
20260508023008 50 0 0.0 3.0 0.00 0.29 0.27 91 968.9
20260508022507 50 0 0.0 0.0 0.00 0.30 0.27 90 968.8
20260508021506 51 0 1.0 3.0 0.00 0.31 0.27 89 968.7
20260508021009 51 0 1.0 3.0 0.00 0.31 0.27 88 968.6
20260508020005 51 0 0.0 0.0 0.00 0.32 0.27 88 968.4
20260508015503 52 0 1.0 3.0 0.00 0.32 0.27 87 968.2
20260508014956 52 0 2.0 3.0 0.00 0.32 0.27 86 968.2
20260508014451 52 0 2.0 3.0 0.00 0.32 0.27 85 968.1
20260508013944 53 0 2.0 3.0 0.00 0.33 0.27 85 968.0
20260508013440 53 0 2.0 3.0 0.00 0.33 0.27 84 967.9
20260508012933 53 0 2.0 3.0 0.00 0.33 0.27 83 967.9
20260508012427 54 0 1.0 3.0 0.00 0.33 0.27 83 967.7
20260508011920 55 0 0.0 2.0 0.00 0.33 0.27 81 967.6
20260508010909 56 0 0.0 0.0 0.00 0.33 0.27 78 967.5
20260508005856 58 0 0.0 0.0 0.00 0.34 0.27 72 967.3
20260508005351 58 0 0.0 5.0 0.00 0.35 0.27 71 967.2
20260508004338 58 30 1.0 8.0 0.00 0.35 0.27 70 967.3
20260508003833 59 36 1.0 8.0 0.00 0.36 0.27 69 967.1
20260508003326 59 28 1.0 6.0 0.00 0.36 0.27 69 967.1